Alpine, TX

4:25 AM CST on January 17, 2018 (GMT -0600)
Alpine

Weather History for KE38 - January, 2013

Change the Weather History Date:

Friday, January 18, 2013

  Actual Average (KMRF) Record (KMRF)
Temperature  
Mean Temperature 43 °F -  
Max Temperature 57 °F 57 °F 75 °F (2000)
Min Temperature 29 °F 26 °F 12 °F (2008)
Degree Days  
Heating Degree Days 22    
Moisture  
Dew Point 23 °F    
Average Humidity 47    
Maximum Humidity 76    
Minimum Humidity 25    
Precipitation  
Precipitation 0.00 in - - ()
Sea Level Pressure  
Sea Level Pressure 30.39 in    
Wind  
Wind Speed 7 mph (South)    
Max Wind Speed 17 mph    
Max Gust Speed 24 mph    
Visibility 10 miles    
Events      
Averages and records for this station are not official NWS values.
T = Trace of Precipitation, MM = Missing Value Source: NWS Daily Summary

Daily Weather History Graph

Daily Weather History Graph

Search for Another Location

Airport or City:

Trip Planner

Search our weather history database for the weather conditions in past years. The results will help you decide how hot, cold, wet, or windy it might be!

Date:

Astronomy

Jan. 18, 2013 Rise Set
Actual Time 7:51 AM CST 6:19 PM CST
Civil Twilight 7:25 AM CST 6:45 PM CST
Nautical Twilight 6:56 AM CST 7:14 PM CST
Astronomical Twilight 6:27 AM CST 7:43 PM CST
Moon 12:06 PM CST (1/18) 12:38 AM CST (1/18)
Length of Visible Light 11h 19m
Length of Day
10h 27m
Waxing Crescent, 47% of the Moon is Illuminated
Jan 18
Waxing Crescent
Jan 18
First Quarter
Jan 26
Full
Feb 3
Last Quarter
Feb 10
New

Hourly Weather History & Observations

Time (CST) Temp. Windchill Dew Point Humidity Pressure Visibility Wind Dir Wind Speed Gust Speed Precip Events Conditions
12:15 AM 30.2 °F 25.4 °F 23.0 °F 75% 30.50 in 10.0 mi South 4.6 mph - N/A   Clear
12:35 AM 31.8 °F 26.2 °F 23.5 °F 71% 30.50 in 10.0 mi South 5.8 mph - N/A   Clear
12:55 AM 36.7 °F 32.9 °F 23.4 °F 59% 30.49 in 10.0 mi South 4.6 mph - N/A   Clear
1:15 AM 33.6 °F 30.6 °F 23.2 °F 66% 30.49 in 10.0 mi South 3.5 mph - N/A   Clear
1:35 AM 38.1 °F 34.6 °F 23.5 °F 56% 30.48 in 10.0 mi SE 4.6 mph - N/A   Clear
1:55 AM 37.0 °F 34.5 °F 23.4 °F 58% 30.47 in 10.0 mi South 3.5 mph - N/A   Clear
2:15 AM 30.0 °F - 23.4 °F 76% 30.47 in 10.0 mi Calm Calm - N/A   Clear
2:35 AM 29.8 °F 24.9 °F 23.2 °F 76% 30.47 in 10.0 mi SW 4.6 mph - N/A   Clear
2:55 AM 30.2 °F 25.4 °F 23.0 °F 75% 30.47 in 10.0 mi SW 4.6 mph - N/A   Clear
3:15 AM 30.0 °F - 23.4 °F 76% 30.46 in 10.0 mi Calm Calm - N/A   Clear
3:35 AM 30.0 °F 26.5 °F 23.2 °F 76% 30.46 in 10.0 mi SSE 3.5 mph - N/A   Clear
3:55 AM 32.4 °F - 23.4 °F 69% 30.45 in 10.0 mi Calm Calm - N/A   Clear
4:15 AM 35.1 °F 29.3 °F 23.7 °F 63% 30.44 in 10.0 mi South 6.9 mph - N/A   Clear
4:35 AM 36.0 °F 31.1 °F 24.1 °F 62% 30.44 in 10.0 mi SSW 5.8 mph - N/A   Clear
4:55 AM 34.9 °F 29.0 °F 24.3 °F 65% 30.44 in 10.0 mi SW 6.9 mph - N/A   Clear
5:15 AM 36.3 °F 30.8 °F 24.4 °F 62% 30.44 in 10.0 mi SSW 6.9 mph - N/A   Clear
5:35 AM 36.5 °F 29.7 °F 24.1 °F 61% 30.44 in 10.0 mi SSW 9.2 mph - N/A   Clear
6:15 AM 35.8 °F 28.3 °F 23.9 °F 62% 30.44 in 10.0 mi South 10.4 mph - N/A   Clear
6:35 AM 35.4 °F 27.8 °F 23.7 °F 62% 30.44 in 10.0 mi South 10.4 mph - N/A   Clear
6:55 AM 35.1 °F 28.6 °F 23.4 °F 62% 30.43 in 10.0 mi South 8.1 mph - N/A   Clear
7:15 AM 34.3 °F 30.2 °F 23.0 °F 63% 30.44 in 10.0 mi South 4.6 mph - N/A   Clear
7:35 AM 32.5 °F 28.1 °F 22.5 °F 66% 30.44 in 10.0 mi South 4.6 mph - N/A   Clear
7:55 AM 31.1 °F 26.4 °F 21.9 °F 69% 30.44 in 10.0 mi SSE 4.6 mph - N/A   Clear
8:15 AM 30.4 °F 23.6 °F 22.5 °F 72% 30.44 in 10.0 mi South 6.9 mph - N/A   Clear
8:35 AM 33.4 °F 26.6 °F 24.1 °F 69% 30.44 in 10.0 mi South 8.1 mph - N/A   Clear
8:55 AM 37.2 °F 31.2 °F 25.5 °F 63% 30.44 in 10.0 mi South 8.1 mph - N/A   Clear
9:15 AM 41.4 °F 38.4 °F 26.1 °F 55% 30.44 in 10.0 mi SSE 4.6 mph - N/A   Clear
9:35 AM 44.4 °F - 24.8 °F 46% 30.44 in 10.0 mi Calm Calm - N/A   Clear
9:55 AM 46.6 °F - 23.7 °F 41% 30.44 in 10.0 mi SE 4.6 mph - N/A   Clear
10:15 AM 49.1 °F - 23.2 °F 36% 30.44 in 10.0 mi SSE 9.2 mph - N/A   Clear
10:35 AM 50.9 °F - 22.3 °F 33% 30.45 in 10.0 mi SSE 11.5 mph 18.4 mph N/A   Clear
10:55 AM 51.4 °F - 22.5 °F 32% 30.44 in 10.0 mi South 10.4 mph - N/A   Clear
11:15 AM 52.9 °F - 23.0 °F 31% 30.44 in 10.0 mi SSE 13.8 mph - N/A   Clear
11:35 AM 53.8 °F - 23.2 °F 30% 30.43 in 10.0 mi South 15.0 mph 19.6 mph N/A   Clear
11:55 AM 54.3 °F - 23.0 °F 30% 30.42 in 10.0 mi SSE 17.3 mph - N/A   Clear
12:15 PM 54.9 °F - 23.2 °F 29% 30.40 in 10.0 mi South 13.8 mph 18.4 mph N/A   Clear
12:35 PM 55.6 °F - 22.1 °F 27% 30.39 in 10.0 mi South 15.0 mph 21.9 mph N/A   Clear
12:55 PM 55.6 °F - 22.8 °F 28% 30.37 in 10.0 mi SSE 17.3 mph 21.9 mph N/A   Clear
1:15 PM 56.5 °F - 23.0 °F 27% 30.36 in 10.0 mi South 15.0 mph 21.9 mph N/A   Clear
1:35 PM 57.0 °F - 22.3 °F 26% 30.34 in 10.0 mi South 16.1 mph 23.0 mph N/A   Clear
1:55 PM 57.4 °F - 21.6 °F 25% 30.34 in 10.0 mi South 17.3 mph 24.2 mph N/A   Clear
2:15 PM 57.6 °F - 21.7 °F 25% 30.32 in 10.0 mi SSW 15.0 mph 23.0 mph N/A   Clear
2:35 PM 57.6 °F - 22.1 °F 25% 30.32 in 10.0 mi South 13.8 mph 24.2 mph N/A   Clear
2:55 PM 57.4 °F - 22.8 °F 26% 30.32 in 10.0 mi SSW 13.8 mph - N/A   Clear
3:15 PM 57.6 °F - 22.8 °F 26% 30.32 in 10.0 mi SSW 17.3 mph - N/A   Clear
3:35 PM 56.3 °F - 23.0 °F 28% 30.32 in 10.0 mi SSW 11.5 mph - N/A   Clear
3:55 PM 55.4 °F - 23.0 °F 29% 30.32 in 10.0 mi SSW 13.8 mph 18.4 mph N/A   Clear
4:15 PM 55.8 °F - 22.5 °F 28% 30.32 in 10.0 mi South 11.5 mph 16.1 mph N/A   Clear
4:35 PM 55.4 °F - 22.1 °F 27% 30.32 in 10.0 mi South 9.2 mph - N/A   Clear
4:55 PM 55.8 °F - 22.5 °F 28% 30.31 in 10.0 mi South 8.1 mph - N/A   Clear
5:15 PM 55.6 °F - 22.1 °F 27% 30.31 in 10.0 mi South 8.1 mph - N/A   Clear
5:35 PM 55.9 °F - 21.6 °F 26% 30.31 in 10.0 mi South 10.4 mph - N/A   Clear
5:55 PM 55.2 °F - 20.8 °F 26% 30.31 in 10.0 mi South 9.2 mph - N/A   Clear
6:15 PM 52.0 °F - 21.4 °F 30% 30.32 in 10.0 mi South 8.1 mph - N/A   Clear
6:35 PM 48.2 °F - 21.6 °F 35% 30.32 in 10.0 mi South 6.9 mph - N/A   Clear
6:55 PM 46.4 °F 42.4 °F 21.2 °F 37% 30.32 in 10.0 mi SSE 8.1 mph - N/A   Clear
7:15 PM 46.2 °F 41.2 °F 21.9 °F 38% 30.32 in 10.0 mi SSE 10.4 mph - N/A   Clear
7:35 PM 45.3 °F 40.1 °F 23.2 °F 42% 30.32 in 10.0 mi South 10.4 mph - N/A   Clear
7:55 PM 44.6 °F 39.2 °F 23.4 °F 43% 30.32 in 10.0 mi South 10.4 mph - N/A   Clear
8:15 PM 44.4 °F 39.0 °F 23.4 °F 43% 30.32 in 10.0 mi South 10.4 mph - N/A   Clear
8:35 PM 44.8 °F 40.4 °F 23.0 °F 42% 30.32 in 10.0 mi SSE 8.1 mph - N/A   Clear
8:55 PM 45.1 °F 40.8 °F 23.0 °F 42% 30.32 in 10.0 mi SSE 8.1 mph - N/A   Clear
9:15 PM 44.6 °F 39.2 °F 23.2 °F 43% 30.31 in 10.0 mi South 10.4 mph - N/A   Clear
9:35 PM 45.3 °F 40.6 °F 22.8 °F 41% 30.32 in 10.0 mi South 9.2 mph - N/A   Clear
9:55 PM 43.5 °F 40.1 °F 22.6 °F 44% 30.31 in 10.0 mi SSW 5.8 mph - N/A   Clear
10:15 PM 42.1 °F 36.6 °F 22.8 °F 46% 30.32 in 10.0 mi South 9.2 mph - N/A   Clear
10:35 PM 41.9 °F 36.9 °F 23.0 °F 47% 30.31 in 10.0 mi SSW 8.1 mph - N/A   Clear
10:55 PM 41.4 °F 35.2 °F 23.0 °F 48% 30.31 in 10.0 mi South 10.4 mph - N/A   Clear
11:15 PM 44.4 °F 38.6 °F 23.0 °F 43% 30.30 in 10.0 mi South 11.5 mph - N/A   Clear
11:35 PM 43.5 °F 37.9 °F 22.8 °F 44% 30.30 in 10.0 mi South 10.4 mph - N/A   Clear
11:55 PM 41.7 °F 35.6 °F 23.0 °F 47% 30.29 in 10.0 mi SSW 10.4 mph - N/A   Clear